Buena Park, CA

9:24 PM PDT on July 23, 2016 (GMT -0700)
Fullerton Municipal

Weather History for KFUL - May, 2009

Change the Weather History Date:

Tuesday, May 26, 2009

  Actual Average Record
Temperature  
Mean Temperature 68 °F 67 °F  
Max Temperature 74 °F 75 °F 83 °F (2014)
Min Temperature 61 °F 59 °F 50 °F (2008)
Degree Days  
Heating Degree Days 0 1  
Month to date heating degree days 1 31  
Since 1 July heating degree days 995 1225  
Cooling Degree Days 3 3  
Month to date cooling degree days 106 56  
Year to date cooling degree days 191 108  
Growing Degree Days 18 (Base 50)    
Moisture  
Dew Point 53 °F    
Average Humidity 61    
Maximum Humidity 72    
Minimum Humidity 49    
Precipitation  
Precipitation 0.00 in 0.00 in 0.07 in (1962)
Month to date precipitation T 0.24  
Year to date precipitation 5.38 9.55  
Since 1 July precipitation 10.01  
Snow  
Snow 0.00 in - - ()
Month to date snowfall 0.0  
Year to date snowfall 0.0  
Snow Depth 0.00 in    
Sea Level Pressure  
Sea Level Pressure 29.91 in    
Wind  
Wind Speed 3 mph (SSW)    
Max Wind Speed 12 mph    
Max Gust Speed 16 mph    
Visibility 10 miles    
Events      
T = Trace of Precipitation, MM = Missing Value Source: NWS Daily Summary

Daily Weather History Graph

Daily Weather History Graph

Search for Another Location

Airport or City:

Trip Planner

Search our weather history database for the weather conditions in past years. The results will help you decide how hot, cold, wet, or windy it might be!

Date:

Astronomy

May. 26, 2009 Rise Set
Actual Time 5:44 AM PDT 7:54 PM PDT
Civil Twilight 5:15 AM PDT 8:22 PM PDT
Nautical Twilight 4:41 AM PDT 8:57 PM PDT
Astronomical Twilight 4:03 AM PDT 9:34 PM PDT
Moon 7:41 AM PDT (5/26) 10:43 PM PDT (5/26)
Length of Visible Light 15h 06m
Length of Day
14h 10m
Waxing Crescent, 8% of the Moon is Illuminated
May 26
Waxing Crescent
May 30
First Quarter
Jun 7
Full
Jun 15
Last Quarter
Jun 22
New

Hourly Weather History & Observations

Time (PDT) Temp. Dew Point Humidity Pressure Visibility Wind Dir Wind Speed Gust Speed Precip Events Conditions
12:53 AM 62.1 °F 52.0 °F 70% 29.92 in 10.0 mi Calm Calm - N/A   Overcast
1:53 AM 62.1 °F 52.0 °F 70% 29.91 in 10.0 mi WNW 3.5 mph - N/A   Overcast
2:53 AM 62.1 °F 52.0 °F 70% 29.90 in 10.0 mi WNW 3.5 mph - N/A   Overcast
3:53 AM 62.1 °F 52.0 °F 70% 29.90 in 9.0 mi Calm Calm - N/A   Overcast
4:53 AM 62.1 °F 52.0 °F 70% 29.90 in 10.0 mi Calm Calm - N/A   Overcast
5:53 AM 63.0 °F 52.0 °F 67% 29.91 in 10.0 mi Calm Calm - N/A   Overcast
6:53 AM 63.0 °F 52.0 °F 67% 29.92 in 9.0 mi Calm Calm - N/A   Overcast
7:53 AM 64.0 °F 52.0 °F 65% 29.93 in 8.0 mi Calm Calm - N/A   Overcast
8:53 AM 64.0 °F 52.0 °F 65% 29.94 in 8.0 mi Calm Calm - N/A   Overcast
9:53 AM 64.9 °F 53.1 °F 65% 29.93 in 10.0 mi Calm Calm - N/A   Overcast
10:53 AM 66.0 °F 53.1 °F 63% 29.93 in 10.0 mi South 3.5 mph - N/A   Overcast
11:53 AM 68.0 °F 53.1 °F 59% 29.93 in 10.0 mi SW 5.8 mph - N/A   Overcast
12:50 PM 69.8 °F 53.6 °F 56% 29.91 in 10.0 mi Calm Calm - N/A   Mostly Cloudy
12:53 PM 71.1 °F 53.1 °F 53% 29.91 in 10.0 mi Variable 6.9 mph - N/A   Mostly Cloudy
1:53 PM 72.0 °F 53.1 °F 51% 29.90 in 10.0 mi Variable 6.9 mph - N/A   Clear
2:53 PM 73.0 °F 53.1 °F 49% 29.88 in 10.0 mi SSW 8.1 mph - N/A   Clear
3:53 PM 72.0 °F 54.0 °F 53% 29.88 in 10.0 mi SW 6.9 mph 16.1 mph N/A   Clear
4:53 PM 71.1 °F 53.1 °F 53% 29.88 in 10.0 mi SW 9.2 mph - N/A   Clear
5:53 PM 70.0 °F 53.1 °F 55% 29.87 in 10.0 mi SSW 6.9 mph - N/A   Clear
6:53 PM 68.0 °F 53.1 °F 59% 29.87 in 10.0 mi SSW 5.8 mph - N/A   Clear
7:53 PM 64.9 °F 53.1 °F 65% 29.88 in 10.0 mi South 6.9 mph - N/A   Clear
8:53 PM 64.0 °F 54.0 °F 70% 29.91 in 10.0 mi Calm Calm - N/A   Clear
9:53 PM 63.0 °F 54.0 °F 72% 29.93 in 10.0 mi Calm Calm - N/A   Clear
10:33 PM 62.6 °F 53.6 °F 72% 29.94 in 10.0 mi South 5.8 mph - N/A   Mostly Cloudy
10:40 PM 62.6 °F 53.6 °F 72% 29.94 in 10.0 mi South 4.6 mph - N/A   Scattered Clouds
10:53 PM 62.1 °F 54.0 °F 75% 29.94 in 10.0 mi South 4.6 mph - N/A   Partly Cloudy
11:53 PM 62.1 °F 54.0 °F 75% 29.94 in 10.0 mi Calm Calm - N/A   Mostly Cloudy